Temperature
14 14 14 15 15 15 15 16 16 16 16 16 17 17 17 17 17 17 17 17 17 17 18 18 18 18 18 18 18 18 18 18 18 18 18 18 18 18 18 17 17 17 17
14 14 14 14 15 15 15 15 15 16 16 16 16 16 17 17 17 17 17 17 17 17 18 17 17 18 18 18 18 17 18 18 18 18 18 17 18 18 18 17 17 17 17
13 13 14 14 14 14 15 15 15 15 15 16 16 16 17 17 17 17 17 17 17 17 18 17 17 17 17 17 17 17 17 18 17 17 17 17 17 17 17 17 17 17 17
13 13 13 14 14 14 14 14 15 15 15 15 16 16 16 17 17 17 17 17 17 17 18 18 17 17 17 17 17 17 17 17 17 17 17 17 17 17 17 17 17 17 17
13 13 13 13 13 14 14 14 14 14 15 15 15 16 16 16 17 17 17 17 17 17 17 17 17 17 17 17 17 17 17 17 17 17 17 17 17 17 17 17 17 17 17
13 13 13 13 13 13 14 14 14 14 14 15 15 15 16 16 16 17 17 17 17 17 17 17 17 17 17 17 17 17 17 17 17 17 17 17 17 17 17 17 17 17 17
12 12 12 13 13 13 13 13 13 14 14 14 15 15 16 16 16 16 17 17 17 17 17 17 17 17 17 17 17 17 17 17 17 17 17 17 17 17 17 17 17 17 16
12 12 12 12 12 13 13 13 13 13 14 14 14 14 15 15 16 16 16 17 17 17 17 17 17 17 17 17 17 17 17 17 17 17 17 17 17 17 17 17 17 17 16
12 12 12 12 12 12 12 13 13 13 13 13 13 14 14 15 15 16 16 16 17 17 17 17 17 17 17 17 17 17 17 17 17 17 17 17 17 17 17 17 17 16 16
12 12 12 12 12 12 12 12 12 13 13 13 13 13 14 14 14 15 16 16 16 16 17 17 17 17 17 17 17 17 17 17 17 17 17 17 17 17 17 17 17 16 16
11 11 12 12 12 12 12 12 12 12 12 13 13 13 13 14 14 14 14 15 16 16 16 17 17 17 17 17 17 17 17 17 17 17 17 17 17 17 17 17 16 16 16
11 11 12 12 11 11 11 12 12 12 12 12 13 13 13 13 13 14 14 14 15 16 16 16 17 17 17 17 17 17 17 17 17 17 17 17 17 17 17 16 16 16 16
11 11 11 11 11 11 11 11 12 12 12 12 12 12 13 13 13 13 13 14 14 15 16 16 16 17 17 17 17 17 17 17 17 17 17 17 17 17 16 16 16 16 16
11 11 11 11 11 11 11 11 11 12 12 12 12 12 12 13 13 13 13 13 13 14 15 16 16 16 16 17 17 17 17 17 17 17 17 17 16 16 16 16 16 16 16
11 11 11 11 11 11 11 11 11 12 12 12 12 12 12 12 13 13 13 13 13 13 14 15 15 16 16 16 16 16 17 17 17 17 17 17 16 16 16 16 16 16 16
11 11 11 11 11 11 11 11 11 11 11 12 12 12 12 12 12 13 13 13 13 13 13 14 15 15 15 16 16 16 16 16 16 17 17 17 16 16 16 16 16 16 16
12 12 11 11 11 11 11 11 11 11 11 11 12 12 12 12 12 12 12 13 13 13 13 14 14 14 15 15 15 16 16 16 16 16 16 16 16 16 16 16 16 16 16
12 12 12 12 11 11 11 11 11 11 11 11 11 12 12 12 12 12 12 12 13 13 13 13 14 14 14 15 15 15 15 16 16 16 16 16 16 16 16 16 16 16 16
12 12 12 12 12 12 11 11 11 11 11 11 11 12 12 12 12 12 12 12 12 12 12 13 13 14 14 14 14 15 15 15 15 16 16 16 16 16 16 16 16 16 16
13 12 12 12 12 12 12 11 11 11 11 11 11 11 11 11 12 12 12 12 12 12 12 12 12 13 13 14 14 14 15 15 15 15 15 16 16 16 16 16 16 16 15
13 13 12 12 12 12 12 12 12 11 11 11 11 11 11 11 11 12 12 12 12 12 12 12 12 12 13 13 13 14 14 14 15 15 15 15 15 15 15 15 15 15 15
13 13 13 12 12 12 12 12 12 12 11 11 11 11 11 11 11 11 11 11 12 12 12 12 12 12 12 13 13 13 13 13 14 14 14 15 15 15 15 15 15 15 15
13 13 13 13 12 12 12 12 12 12 12 12 11 11 11 11 11 11 11 11 11 11 12 12 12 12 12 12 12 13 13 13 13 14 14 14 14 15 15 15 15 15 15
13 13 13 13 13 12 12 12 12 12 12 12 12 11 11 11 11 11 11 12 12 12 12 12 12 12 12 12 12 12 12 12 13 13 13 13 14 14 14 14 14 14 14
13 13 13 13 13 13 12 12 12 12 12 12 12 11 11 12 11 11 11 12 12 12 12 11 12 12 12 12 12 12 12 12 12 13 13 13 13 13 14 14 14 14 14
13 13 13 13 13 13 12 12 12 12 12 12 12 12 11 11 11 11 11 11 12 12 12 12 12 12 12 12 12 12 12 12 12 12 13 12 13 12 13 13 14 14 14
Wind_Speed
3 3 2 3 3 3 2 2 2 2 3 3 4 4 4 4 5 5 6 9 10 10 10 10 11 12 12 12 12 12 13 13 12 12 12 13 13 12 12 11 11 10 9
2 2 3 3 3 3 3 2 2 2 3 3 4 4 4 4 5 5 7 7 9 10 11 11 12 13 13 13 13 13 14 13 13 13 13 13 13 12 12 11 10 10 9
3 2 2 3 3 4 3 2 1 2 2 3 3 4 4 4 4 5 6 6 6 8 10 10 11 12 13 14 14 14 14 14 14 14 14 13 13 13 12 11 10 9 9
4 2 2 3 4 3 2 1 1 1 2 2 3 3 3 3 4 4 4 5 5 6 8 10 11 12 13 14 15 15 15 15 15 15 15 15 14 13 12 11 11 10 9
5 3 2 3 3 2 2 1 0 1 2 2 3 3 3 3 4 4 3 4 5 5 6 8 11 12 14 15 15 15 16 16 16 16 15 15 15 14 13 12 11 10 9
5 3 2 3 2 2 2 1 1 1 2 2 3 3 2 3 3 4 4 3 4 5 6 7 8 10 14 15 16 16 16 16 16 16 16 16 15 15 14 13 12 11 10
6 3 3 3 2 2 2 2 1 1 1 1 1 2 2 2 3 3 3 3 4 5 6 6 7 8 9 14 16 17 17 17 17 17 17 17 16 16 15 14 13 12 11
6 4 3 3 2 2 2 2 1 1 1 0 1 0 1 2 2 3 3 4 4 3 5 6 7 8 8 9 13 17 17 18 18 17 18 18 17 17 16 15 14 13 12
5 4 3 2 2 1 1 2 1 0 1 1 1 1 1 1 1 1 2 2 3 4 4 4 7 9 10 10 11 15 18 19 18 18 18 18 18 18 17 16 15 14 13
5 5 4 3 2 1 2 2 1 1 1 1 1 1 1 1 1 1 2 1 2 3 4 4 5 7 10 10 12 14 17 19 20 19 19 19 19 19 18 17 17 15 14
5 5 4 3 3 2 2 2 2 1 1 1 1 1 1 1 1 1 1 2 2 2 3 4 4 5 9 11 11 14 17 19 20 20 20 19 19 19 19 19 18 17 16
4 6 4 4 3 2 3 3 2 1 1 1 1 1 1 1 2 2 2 2 2 2 3 3 4 5 7 10 13 15 18 19 20 21 21 20 20 20 20 20 19 18 17
4 5 5 4 3 3 3 2 2 2 1 1 2 2 2 3 2 2 2 2 2 2 2 2 3 4 6 8 11 15 17 19 20 21 22 21 21 21 21 21 21 20 19
4 5 5 5 4 4 3 2 2 2 1 2 2 2 2 3 3 3 3 2 2 2 2 3 1 3 4 6 9 12 12 17 19 20 21 22 22 22 22 22 21 21 21
4 5 5 5 4 4 3 2 1 2 2 2 3 3 2 2 3 3 3 3 3 2 3 3 2 2 3 4 7 9 10 13 16 19 20 21 22 23 23 23 22 22 21
4 5 5 5 4 4 4 2 2 2 2 2 2 2 2 2 3 3 3 3 4 3 3 3 3 2 2 3 6 8 9 11 14 16 19 20 21 22 22 23 22 22 21
4 4 4 4 4 4 4 3 3 3 3 3 2 2 3 3 3 2 2 3 4 4 5 3 2 2 3 4 3 5 7 8 9 14 16 18 20 21 21 22 22 22 22
4 4 4 4 4 4 4 3 4 3 3 3 4 3 4 3 3 3 2 3 3 4 4 5 3 3 4 4 4 4 4 6 7 11 14 16 17 19 20 21 22 22 22
4 4 3 4 4 4 4 4 3 3 3 4 4 4 4 3 4 3 3 3 3 3 3 4 4 3 3 2 2 3 4 3 5 8 12 15 16 18 19 20 21 22 22
4 4 4 4 5 5 4 4 4 3 4 4 4 4 4 4 5 4 4 4 3 3 3 4 4 3 3 2 2 3 3 3 4 5 7 9 12 15 17 19 20 21 22
4 4 4 5 5 4 4 4 3 3 4 4 4 4 4 5 6 5 4 3 4 3 3 4 4 3 3 3 3 3 4 3 4 4 4 5 6 7 10 15 18 20 21
4 4 4 5 5 5 7 7 4 3 3 3 4 4 5 5 5 6 6 5 4 4 5 4 4 5 5 4 4 4 4 3 3 3 4 4 5 6 6 9 14 18 20
4 5 5 5 6 7 9 8 6 3 3 3 4 4 4 4 5 4 5 5 5 6 7 5 6 6 5 5 4 5 6 5 5 3 3 4 4 6 5 9 15 18 19
4 4 5 5 5 7 9 8 7 3 3 4 4 4 4 5 4 4 4 4 4 4 5 5 6 6 6 5 6 6 5 4 3 3 4 4 4 5 5 6 14 17 19
4 4 4 4 5 7 9 8 6 2 3 5 4 4 4 5 7 6 4 4 5 5 5 7 7 8 9 9 6 4 4 4 5 4 4 4 3 3 3 5 8 15 17
4 4 4 4 4 5 8 8 6 1 3 4 5 4 5 6 8 7 4 4 6 6 5 5 5 6 6 7 8 7 6 6 4 4 5 5 3 2 3 3 4 7 10
Wind_Direction
316 319 318 318 313 308 287 265 252 245 241 240 238 234 234 239 239 239 246 248 238 226 221 217 208 202 197 193 189 184 177 173 171 167 164 158 154 151 148 144 140 137 136
317 319 316 312 307 304 287 261 252 247 245 244 249 240 236 238 237 239 239 244 239 228 224 219 213 203 199 197 192 187 181 179 177 173 168 163 159 157 155 152 149 147 145
337 324 320 316 309 311 300 285 264 249 253 248 256 248 233 228 231 235 236 233 232 227 222 219 215 204 203 201 196 190 185 182 181 177 173 169 165 162 159 157 156 153 149
347 334 322 313 314 320 312 280 247 257 256 253 256 258 244 229 230 230 229 229 221 220 218 216 214 208 209 206 200 195 190 187 186 182 179 175 171 168 166 164 163 161 155
355 343 313 307 321 321 321 301 251 237 258 265 257 250 242 232 232 229 222 223 219 213 208 209 211 209 210 208 205 200 194 192 190 188 185 180 177 176 173 172 170 168 166
353 350 324 323 330 333 333 323 280 254 247 261 277 274 246 230 225 224 219 212 214 211 207 204 207 211 213 209 206 203 198 196 194 192 190 186 182 182 181 180 179 179 178
355 355 348 342 348 345 324 317 284 266 269 258 309 306 288 238 229 231 217 207 214 210 203 202 199 202 212 212 209 206 202 199 199 196 194 191 189 188 187 186 188 188 190
353 357 354 345 347 350 350 351 359 313 283 219 166 224 314 322 275 239 221 216 217 201 205 206 199 199 205 206 210 209 207 204 202 201 199 197 195 194 193 194 194 195 198
345 348 344 344 341 349 326 305 296 116 281 290 227 178 175 241 296 310 250 229 215 206 210 202 202 203 205 205 207 211 209 208 206 205 204 203 200 198 199 200 200 200 202
340 343 342 345 341 331 318 307 318 227 208 276 297 261 219 198 195 329 330 303 254 225 220 220 209 205 206 205 209 210 211 210 210 211 211 208 205 203 204 205 205 205 206
335 342 341 344 341 330 318 317 321 284 213 215 240 261 239 226 200 210 281 315 312 265 235 222 212 207 207 206 208 213 213 213 213 214 215 214 210 208 209 209 209 209 210
330 342 342 343 333 324 314 309 303 289 259 239 238 234 222 214 207 202 224 258 279 279 260 235 217 211 209 209 213 213 213 214 216 216 216 217 215 213 213 213 213 213 213
321 328 339 334 331 322 312 307 303 299 280 257 250 245 241 240 223 205 212 231 247 277 280 261 231 215 216 211 218 216 216 216 217 218 217 217 217 216 216 217 216 216 216
295 311 327 330 328 329 330 331 319 300 293 278 268 256 249 251 233 218 207 197 228 263 267 264 269 230 225 213 219 214 219 219 219 220 220 219 218 218 217 217 219 219 218
303 324 333 339 340 342 340 342 329 313 309 291 281 270 261 262 249 237 224 204 201 225 249 251 248 246 230 221 219 214 219 222 222 222 222 222 220 220 218 217 218 220 220
316 328 338 342 341 340 342 347 328 319 327 306 284 283 282 272 268 250 232 220 213 214 238 253 241 251 247 242 225 220 223 225 225 224 223 221 221 220 219 216 216 216 217
314 322 326 332 335 334 335 338 323 322 325 316 311 292 286 279 270 263 241 225 218 212 238 260 248 252 239 242 238 226 226 224 227 225 224 223 221 219 217 216 214 214 214
303 307 315 320 324 325 326 322 317 320 313 308 304 297 291 290 282 274 253 240 231 221 225 249 250 244 244 239 235 233 229 228 226 228 225 224 220 217 216 215 214 212 211
297 306 310 308 310 312 312 307 297 299 294 288 286 284 285 286 279 272 258 244 237 233 224 237 250 244 250 246 245 246 238 234 233 233 228 226 222 218 215 215 214 212 211
288 296 299 297 296 298 297 298 295 292 293 288 281 277 279 271 266 266 260 247 235 235 235 240 247 247 248 241 228 239 249 235 237 234 229 226 224 221 219 216 215 214 212
281 284 293 301 302 297 290 294 289 290 294 300 298 286 281 280 277 269 257 240 223 227 234 240 244 245 242 228 229 225 241 249 244 223 225 226 217 220 218 219 217 216 213
283 285 287 292 300 297 308 312 301 283 291 294 301 302 296 294 306 310 301 279 245 229 230 234 241 244 245 236 231 230 235 239 251 215 209 229 207 223 218 213 216 214 213
280 283 283 285 288 292 304 313 312 291 284 287 286 297 309 310 318 311 310 304 288 272 251 238 242 247 245 234 227 237 234 232 237 218 207 238 215 229 224 220 215 214 214
277 278 281 284 286 294 309 314 313 303 288 290 281 274 281 297 303 301 300 302 291 283 269 252 241 247 248 244 234 237 244 244 253 234 202 233 224 229 224 219 218 215 215
289 282 281 289 290 299 316 321 322 295 297 300 297 289 287 289 301 313 302 294 294 291 278 260 257 257 259 257 243 234 233 237 252 239 203 214 224 232 232 232 223 218 218
287 302 310 307 300 302 323 332 333 271 295 304 308 303 300 300 305 312 293 281 287 289 294 297 289 282 267 259 247 231 228 235 243 241 206 196 203 198 243 231 221 216 218
Height
1506 1506 1506 1505 1505 1505 1506 1507 1507 1508 1510 1511 1512 1514 1515 1516 1517 1519 1520 1521 1522 1524 1525 1526 1528 1530 1531 1533 1535 1537 1539 1541 1543 1545 1547 1549 1550 1552 1553 1555 1556 1557 1559
1504 1504 1504 1503 1503 1503 1504 1504 1504 1505 1507 1508 1509 1511 1512 1513 1515 1517 1518 1520 1521 1522 1523 1525 1526 1528 1530 1532 1534 1536 1539 1540 1543 1545 1546 1548 1550 1552 1553 1555 1556 1558 1559
1503 1502 1502 1501 1501 1501 1501 1502 1502 1503 1504 1505 1506 1507 1509 1510 1512 1514 1516 1517 1519 1520 1522 1523 1524 1526 1528 1531 1533 1535 1537 1539 1542 1544 1546 1548 1550 1551 1553 1555 1556 1558 1559
1501 1500 1500 1499 1499 1499 1499 1499 1499 1500 1501 1502 1503 1504 1506 1507 1509 1511 1513 1515 1516 1518 1520 1521 1523 1525 1527 1529 1531 1534 1536 1538 1540 1543 1545 1547 1549 1551 1553 1554 1556 1557 1559
1499 1498 1498 1497 1497 1497 1497 1497 1497 1497 1498 1499 1500 1501 1502 1504 1506 1507 1509 1512 1514 1516 1518 1519 1521 1523 1525 1527 1529 1532 1534 1536 1539 1541 1543 1546 1548 1550 1552 1554 1555 1557 1558
1498 1497 1496 1495 1495 1495 1495 1495 1495 1495 1496 1496 1497 1498 1499 1500 1502 1504 1506 1508 1511 1513 1515 1517 1519 1521 1523 1525 1527 1530 1532 1534 1537 1539 1542 1544 1546 1548 1551 1552 1554 1556 1557
1497 1496 1495 1494 1493 1493 1493 1493 1493 1493 1494 1494 1495 1496 1496 1497 1499 1501 1503 1505 1507 1510 1512 1514 1516 1519 1521 1523 1525 1528 1530 1532 1535 1538 1540 1542 1545 1547 1549 1551 1553 1554 1556
1496 1495 1494 1493 1492 1491 1491 1491 1491 1491 1492 1492 1493 1493 1494 1496 1496 1498 1500 1502 1504 1506 1509 1511 1513 1516 1518 1521 1523 1525 1528 1530 1533 1535 1538 1540 1543 1545 1547 1549 1551 1552 1554
1495 1494 1493 1492 1491 1490 1490 1489 1489 1490 1490 1490 1491 1492 1492 1492 1493 1495 1497 1498 1501 1503 1505 1508 1510 1513 1515 1518 1520 1523 1525 1528 1530 1533 1535 1538 1540 1543 1545 1547 1549 1550 1552
1495 1493 1492 1491 1490 1489 1488 1488 1488 1488 1488 1489 1489 1490 1491 1491 1492 1493 1494 1495 1497 1499 1502 1504 1507 1509 1512 1514 1517 1520 1522 1525 1527 1530 1532 1535 1538 1540 1542 1544 1546 1548 1550
1494 1493 1491 1490 1489 1488 1487 1487 1487 1487 1487 1487 1488 1488 1489 1490 1491 1491 1491 1493 1494 1496 1498 1500 1503 1505 1508 1511 1513 1516 1519 1521 1524 1527 1529 1532 1534 1537 1539 1541 1544 1545 1547
1494 1492 1491 1489 1488 1487 1486 1486 1486 1486 1485 1486 1486 1486 1487 1488 1488 1489 1490 1490 1491 1493 1495 1497 1499 1501 1504 1507 1510 1512 1515 1518 1520 1523 1525 1528 1531 1533 1536 1538 1540 1542 1544
1493 1492 1490 1488 1487 1486 1485 1485 1485 1484 1484 1484 1484 1484 1485 1485 1486 1487 1488 1488 1489 1490 1492 1493 1495 1497 1500 1503 1505 1508 1511 1513 1516 1519 1522 1524 1527 1529 1532 1535 1537 1539 1541
1493 1491 1489 1488 1486 1485 1484 1484 1483 1483 1483 1482 1482 1482 1483 1483 1483 1484 1485 1486 1486 1487 1488 1490 1491 1493 1496 1498 1501 1503 1506 1509 1511 1514 1517 1520 1522 1525 1528 1530 1533 1535 1537
1492 1491 1489 1487 1485 1484 1483 1483 1482 1481 1481 1481 1480 1480 1480 1481 1481 1481 1482 1483 1485 1485 1485 1486 1488 1490 1492 1494 1496 1498 1501 1503 1506 1509 1512 1515 1517 1520 1523 1526 1528 1531 1533
1492 1490 1488 1486 1485 1484 1482 1481 1480 1480 1479 1479 1478 1478 1478 1478 1478 1479 1479 1480 1481 1482 1482 1483 1485 1487 1488 1490 1492 1494 1496 1498 1501 1503 1506 1509 1512 1515 1518 1521 1523 1526 1528
1491 1489 1488 1486 1484 1483 1481 1480 1479 1478 1477 1477 1476 1476 1476 1476 1476 1476 1477 1477 1478 1479 1479 1480 1481 1483 1484 1486 1488 1489 1491 1493 1495 1498 1501 1504 1506 1509 1512 1515 1518 1520 1523
1491 1489 1487 1485 1484 1482 1481 1479 1478 1477 1476 1475 1474 1474 1474 1473 1473 1473 1474 1474 1475 1476 1477 1477 1478 1479 1480 1482 1483 1484 1486 1488 1490 1492 1495 1497 1500 1503 1506 1509 1512 1514 1517
1490 1489 1487 1485 1483 1482 1480 1478 1477 1475 1474 1473 1472 1472 1471 1471 1471 1471 1471 1471 1472 1472 1473 1474 1474 1475 1476 1477 1478 1479 1481 1482 1484 1486 1488 1491 1494 1496 1499 1502 1505 1508 1511
1489 1488 1486 1484 1483 1481 1479 1477 1476 1474 1473 1472 1471 1470 1469 1469 1469 1468 1468 1468 1469 1469 1470 1470 1470 1471 1472 1473 1474 1475 1476 1477 1479 1481 1483 1485 1487 1490 1492 1495 1498 1501 1504
1488 1487 1485 1484 1482 1480 1478 1476 1475 1473 1472 1470 1469 1468 1467 1467 1466 1466 1466 1466 1466 1466 1466 1467 1467 1467 1468 1469 1470 1471 1471 1473 1474 1475 1477 1479 1481 1483 1485 1488 1490 1493 1496
1487 1485 1484 1482 1481 1479 1477 1475 1474 1472 1470 1469 1468 1466 1466 1465 1464 1464 1463 1463 1463 1463 1463 1463 1463 1463 1464 1465 1466 1467 1467 1468 1468 1470 1471 1473 1475 1476 1478 1481 1483 1485 1488
1485 1484 1482 1481 1479 1478 1476 1474 1472 1471 1469 1468 1466 1465 1464 1463 1462 1461 1461 1460 1460 1460 1460 1460 1459 1459 1460 1461 1462 1462 1463 1463 1463 1465 1467 1467 1468 1469 1472 1474 1476 1478 1480
1482 1481 1480 1479 1477 1476 1475 1473 1471 1469 1468 1466 1465 1463 1462 1461 1460 1459 1458 1457 1457 1457 1456 1456 1456 1456 1456 1457 1457 1458 1458 1458 1459 1460 1461 1461 1462 1463 1465 1467 1469 1470 1472
1480 1479 1477 1476 1475 1474 1472 1471 1469 1468 1466 1465 1464 1462 1461 1459 1458 1457 1456 1455 1454 1454 1453 1453 1452 1452 1452 1452 1453 1453 1453 1454 1453 1454 1456 1456 1456 1457 1458 1459 1461 1463 1464
1477 1476 1474 1473 1472 1471 1470 1469 1467 1466 1464 1463 1462 1461 1459 1457 1456 1454 1453 1452 1450 1450 1449 1449 1448 1448 1448 1448 1448 1448 1448 1449 1449 1449 1450 1451 1451 1452 1452 1452 1454 1456 1457